DD3FC-1 Weather Reports


time (UTC)temp
C
wind
direction
speed
KPH
gust
KPH
rain 1hr
cm
rain 24hr
cm
rain mn
cm
humidity
%
barometer
mb
20260507003020 10 247 0.0 0.0 0.00 0.03 0.00 92 1011.4
20260507002020 10 247 0.0 0.0 0.00 0.03 0.00 92 1011.4
20260507001020 10 247 0.0 1.6 0.00 0.03 0.00 92 1011.4
20260507000020 10 247 0.0 0.0 0.00 0.03 0.00 92 1011.4
20260506235020 10 247 0.0 1.6 0.00 0.03 0.00 92 1011.4
20260506234020 10 248 0.0 1.6 0.00 0.03 0.00 92 1011.4
20260506233020 10 248 0.0 0.0 0.00 0.03 0.00 92 1011.3
20260506232020 10 248 0.0 0.0 0.00 0.03 0.00 92 1011.3
20260506231020 10 248 0.0 0.0 0.00 0.03 0.00 92 1011.2
20260506230020 10 231 0.0 0.0 0.00 0.03 0.00 92 1011.3
20260506225020 10 254 0.0 0.0 0.00 0.03 0.00 92 1011.1
20260506224020 10 254 0.0 1.6 0.00 0.03 0.00 91 1011.1
20260506223020 11 262 0.0 1.6 0.00 0.03 0.00 92 1010.9
20260506222020 11 262 0.0 1.6 0.00 0.03 0.00 91 1010.9
20260506221020 11 264 0.0 1.6 0.00 0.03 0.03 91 1010.8
20260506220020 11 257 0.0 0.0 0.00 0.03 0.03 92 1010.6
20260506215020 11 257 0.0 0.0 0.00 0.03 0.03 92 1010.5
20260506214020 11 257 0.0 0.0 0.00 0.03 0.03 92 1010.4
20260506213020 11 254 0.0 1.6 0.00 0.03 0.03 91 1010.1
20260506212020 11 262 0.0 1.6 0.00 0.03 0.03 91 1010.0
20260506211020 11 262 0.0 1.6 0.00 0.03 0.03 91 1010.0
20260506210020 11 262 0.0 0.0 0.00 0.03 0.03 91 1010.1
20260506205021 11 257 0.0 1.6 0.00 0.03 0.03 91 1010.1
20260506204021 12 255 0.0 1.6 0.00 0.03 0.03 91 1010.0
20260506203021 12 255 0.0 0.0 0.00 0.03 0.03 91 1009.9
20260506202021 12 255 0.0 0.0 0.00 0.03 0.03 91 1009.8
20260506201021 12 255 0.0 1.6 0.00 0.03 0.03 91 1009.8
20260506200021 12 252 0.0 0.0 0.00 0.03 0.03 91 1009.6
20260506195021 12 252 0.0 0.0 0.00 0.03 0.03 91 1009.5
20260506194021 12 252 0.0 0.0 0.00 0.03 0.03 91 1009.3
20260506193021 12 252 0.0 0.0 0.00 0.03 0.03 90 1009.3
20260506192021 12 252 0.0 1.6 0.00 0.10 0.03 89 1009.2
20260506191021 13 258 0.0 1.6 0.00 0.10 0.03 88 1009.0
20260506190021 13 187 0.0 1.6 0.00 0.10 0.03 86 1009.0
20260506185021 13 252 0.0 1.6 0.00 0.10 0.03 86 1008.9
20260506184021 13 252 0.0 1.6 0.00 0.10 0.03 83 1008.7
20260506183021 13 259 0.0 1.6 0.00 0.10 0.03 82 1008.4
20260506182021 13 281 0.0 3.2 0.00 0.10 0.03 82 1008.3
20260506181021 13 122 0.0 3.2 0.00 0.10 0.03 81 1008.2
20260506180021 14 264 0.0 1.6 0.00 0.10 0.03 81 1008.2
20260506175021 14 184 0.0 1.6 0.00 0.10 0.03 79 1008.2
20260506174021 15 203 0.0 1.6 0.00 0.10 0.03 76 1008.0
20260506173021 15 262 0.0 1.6 0.00 0.10 0.03 76 1008.1
20260506172021 15 110 0.0 3.2 0.00 0.10 0.03 75 1007.9
20260506171021 15 143 1.6 6.4 0.00 0.10 0.03 76 1007.8
20260506170021 15 187 1.6 8.0 0.00 0.10 0.03 74 1007.6
20260506165021 15 209 1.6 6.4 0.00 0.10 0.03 75 1007.6
20260506164021 15 288 1.6 6.4 0.00 0.10 0.03 75 1007.7
20260506163021 16 231 1.6 9.7 0.00 0.10 0.03 73 1007.5
20260506162021 16 293 1.6 4.8 0.00 0.10 0.03 72 1007.6
20260506161021 16 318 3.2 8.0 0.00 0.10 0.03 68 1007.5
20260506160021 17 264 1.6 3.2 0.00 0.10 0.03 58 1007.3
20260506155021 17 134 1.6 6.4 0.00 0.10 0.03 55 1007.2
20260506154021 17 124 1.6 3.2 0.00 0.10 0.03 56 1007.2
20260506153022 18 109 1.6 6.4 0.00 0.10 0.03 55 1007.3
20260506152022 18 147 0.0 1.6 0.00 0.10 0.03 55 1007.3
20260506151022 18 108 0.0 3.2 0.00 0.10 0.03 56 1007.3
20260506150022 18 122 0.0 3.2 0.00 0.10 0.03 54 1007.2
20260506145022 18 271 0.0 1.6 0.00 0.10 0.03 55 1007.2
20260506144022 18 276 0.0 4.8 0.00 0.10 0.03 56 1007.1
20260506143022 18 263 0.0 4.8 0.00 0.10 0.03 56 1006.9
20260506142022 18 271 0.0 1.6 0.00 0.10 0.03 54 1007.0
20260506141022 18 261 0.0 1.6 0.00 0.10 0.03 55 1007.0
20260506140022 18 273 1.6 1.6 0.00 0.10 0.03 53 1007.1
20260506135022 20 271 0.0 4.8 0.00 0.10 0.03 51 1007.1
20260506134022 19 261 0.0 1.6 0.00 0.10 0.03 50 1007.1
20260506133022 20 187 0.0 3.2 0.00 0.10 0.03 50 1007.1
20260506132022 19 273 0.0 4.8 0.00 0.15 0.03 51 1007.2
20260506131022 20 251 0.0 3.2 0.00 0.15 0.03 50 1007.2
20260506130022 20 193 0.0 3.2 0.00 0.15 0.03 51 1007.2
20260506125022 20 260 0.0 3.2 0.00 0.15 0.03 48 1007.2
20260506124022 20 260 0.0 3.2 0.00 0.15 0.03 48 1007.2
20260506123022 20 219 0.0 3.2 0.00 0.15 0.03 49 1007.2
20260506122022 20 252 1.6 6.4 0.00 0.15 0.03 49 1007.2
20260506121022 20 260 0.0 1.6 0.00 0.15 0.03 51 1007.2
20260506120022 19 257 1.6 4.8 0.00 0.15 0.03 52 1007.1
20260506115022 20 285 0.0 1.6 0.00 0.15 0.03 53 1007.3
20260506114022 19 99 0.0 3.2 0.00 0.15 0.03 52 1007.5
20260506113022 20 243 0.0 4.8 0.00 0.15 0.03 50 1007.5
20260506112022 20 247 0.0 1.6 0.00 0.15 0.03 54 1007.5
20260506111022 19 255 1.6 4.8 0.00 0.15 0.03 55 1007.6
20260506110022 18 264 0.0 1.6 0.00 0.15 0.03 58 1007.7
20260506105022 18 251 0.0 1.6 0.00 0.15 0.03 59 1007.7
20260506104022 18 289 0.0 3.2 0.00 0.15 0.03 60 1007.9
20260506103022 18 243 0.0 6.4 0.00 0.15 0.03 59 1007.9
20260506102022 19 258 0.0 1.6 0.00 0.15 0.03 58 1008.0
20260506101022 20 293 0.0 1.6 0.00 0.15 0.03 54 1007.8
20260506100023 21 180 0.0 3.2 0.00 0.15 0.03 54 1007.9
20260506095023 20 252 1.6 4.8 0.00 0.15 0.03 56 1008.0
20260506094023 19 237 0.0 1.6 0.00 0.15 0.03 59 1008.0
20260506093023 18 245 0.0 3.2 0.00 0.15 0.03 61 1008.0
20260506092023 18 254 0.0 3.2 0.00 0.15 0.03 61 1008.0
20260506091023 18 185 0.0 0.0 0.00 0.15 0.03 61 1007.9
20260506090023 18 257 0.0 1.6 0.00 0.15 0.03 66 1007.9
20260506085023 18 262 0.0 3.2 0.00 0.15 0.03 64 1007.9
20260506084023 17 230 0.0 1.6 0.03 0.15 0.03 64 1007.7
20260506083023 18 129 0.0 1.6 0.03 0.15 0.03 63 1007.9
20260506082023 18 263 0.0 3.2 0.03 0.15 0.03 64 1007.9
20260506081023 17 255 0.0 3.2 0.03 0.15 0.03 66 1007.7
20260506073023 17 124 0.0 1.6 0.00 0.13 0.00 72 1007.6
20260506072023 16 221 0.0 1.6 0.00 0.13 0.00 74 1007.4
20260506071023 16 265 0.0 1.6 0.00 0.13 0.00 75 1007.5
20260506062023 13 272 1.6 4.8 0.00 0.13 0.00 84 1007.4
20260506061023 13 248 0.0 3.2 0.00 0.13 0.00 84 1007.4
20260506051024 12 304 0.0 3.2 0.00 0.13 0.00 90 1007.5
20260506045024 12 271 0.0 1.6 0.00 0.13 0.00 90 1007.5
20260506044024 12 272 0.0 1.6 0.00 0.13 0.00 90 1007.5
20260506043024 12 320 0.0 1.6 0.00 0.13 0.00 90 1007.5
20260506042024 12 278 0.0 1.6 0.00 0.13 0.00 90 1007.5
20260506041024 12 291 0.0 1.6 0.00 0.13 0.00 90 1007.5
20260506040024 12 155 0.0 1.6 0.00 0.13 0.00 90 1007.4
20260506035024 12 302 0.0 3.2 0.00 0.13 0.00 90 1007.4
20260506034024 12 129 0.0 1.6 0.00 0.13 0.00 91 1007.6
20260506033024 12 210 0.0 3.2 0.00 0.13 0.00 91 1007.7
20260506032024 12 236 0.0 1.6 0.00 0.13 0.00 91 1007.6
20260506031024 12 297 0.0 3.2 0.00 0.13 0.00 91 1007.6
20260506030024 12 115 0.0 4.8 0.00 0.13 0.00 92 1007.9
20260506025024 12 291 0.0 1.6 0.00 0.13 0.00 92 1007.9
20260506024024 12 269 0.0 3.2 0.00 0.13 0.00 92 1008.0
20260506023024 12 288 0.0 3.2 0.00 0.13 0.00 92 1007.9
20260506022024 12 141 0.0 1.6 0.00 0.13 0.00 92 1008.0
20260506021024 12 131 0.0 1.6 0.00 0.13 0.00 92 1007.9
20260506020235 12 228 0.0 1.6 0.00 0.13 0.00 93 1008.0
20260506020024 12 228 0.0 1.6 0.00 0.13 0.00 93 1008.0
20260506015024 12 4 0.0 1.6 0.00 0.13 0.00 92 1007.9
20260506014024 12 312 0.0 3.2 0.00 0.13 0.00 93 1008.0
20260506013024 12 295 0.0 1.6 0.00 0.13 0.00 93 1008.2
20260506012024 12 278 0.0 1.6 0.00 0.13 0.00 93 1008.0
20260506011024 13 283 0.0 1.6 0.00 0.13 0.00 93 1008.1
20260506010024 13 277 0.0 1.6 0.00 0.13 0.00 93 1008.3
20260506005024 13 169 0.0 1.6 0.00 0.13 0.00 93 1008.4
20260506004024 13 134 0.0 1.6 0.00 0.13 0.00 93 1008.4